User: anonymous   Login
Location: Wallasey
(53.4265°N, 3.0662°W)
Time: 20:25:39
(UTC+00:00)
Language:

AO-91 - Orbit

View from above orbital plane
View from above orbital plane
View from above satellite
View from above satellite

Ground track
Ground track

The orbit data is extracted from the following two-line orbital elements,

1 43017U 17073E   20301.31567105  .00001463  00000-0  11869-3 0  9999
2 43017  97.7151 208.4159 0256191 340.9891  18.1888 14.79093772158652
Epoch (UTC): 27 October 2020 07:34:33
Eccentricity: 0.0256191
inclination: 97.7151°
perigee height: 452 km
apogee height: 812 km
right ascension of ascending node: 208.4159°
argument of perigee: 340.9891°
revolutions per day: 14.79093772
mean anomaly at epoch: 18.1888°
orbit number at epoch: 15865

The dashed part of the orbit path shows where the satellite is in the earth's shadow,  

DLR